Wind_Speed
14 14 12 11 10 9 10 9 10 9 9 10 11 14 13 15 18 11 7 4 5 13 11 9 11 12 13 17 19 12 14 12
16 15 15 14 13 12 12 12 12 12 11 12 14 14 14 16 20 12 13 5 13 12 12 11 11 13 15 16 22 13 8 10
19 18 18 17 16 15 15 15 16 15 15 16 15 16 17 19 20 16 19 10 13 11 11 11 11 14 16 17 22 15 3 17
20 20 19 19 19 19 19 18 19 20 20 20 19 18 19 21 22 20 22 15 12 11 12 12 12 18 18 18 23 14 7 10
20 21 22 21 21 22 22 22 22 23 23 23 22 20 20 20 21 22 23 18 16 16 16 16 17 20 20 17 21 12 14 10
21 21 22 22 24 25 23 24 24 25 25 24 23 24 24 24 26 24 24 24 22 20 20 21 19 17 19 20 19 16 14 13
25 23 24 24 23 26 26 26 25 24 24 25 26 25 27 28 26 27 27 27 26 26 24 23 21 19 18 24 21 18 17 14
18 22 25 25 24 24 25 27 28 27 25 24 25 29 27 31 31 28 26 25 23 28 26 23 20 24 27 23 23 15 13 15
25 23 26 26 27 25 28 27 27 28 27 28 28 28 30 28 28 30 28 29 28 24 23 18 21 24 27 25 25 18 15 15
24 23 23 27 26 28 28 27 28 29 29 28 33 30 33 31 29 29 29 30 29 28 30 27 26 25 26 29 25 22 22 15
17 18 14 24 24 28 28 27 30 33 30 31 35 34 32 32 33 31 30 32 31 32 30 24 30 29 30 29 25 24 24 17
16 18 21 15 24 29 29 30 29 30 35 33 39 35 34 32 32 31 31 28 30 31 26 29 24 36 30 32 24 25 26 23
17 23 25 28 26 28 32 32 34 34 33 38 28 31 31 33 34 33 31 31 29 35 26 30 30 26 27 29 26 27 22 25
16 18 21 25 26 31 32 32 31 37 34 28 37 29 29 29 35 35 32 33 33 30 36 34 36 33 32 33 26 27 26 26
11 15 18 21 23 23 27 29 32 34 34 30 31 39 35 32 33 32 33 35 36 34 36 40 41 41 33 40 22 16 32 27
11 10 11 14 20 23 29 35 36 39 37 31 31 35 30 30 29 30 32 36 38 40 37 36 41 47 39 43 32 33 35 25
7 11 6 11 15 24 22 32 34 37 33 32 34 34 36 34 30 28 31 35 32 36 36 40 40 51 46 46 38 27 37 32
6 11 13 14 21 21 19 28 25 27 24 27 30 33 29 29 26 27 29 31 34 38 38 45 46 52 48 49 44 35 39 32
10 7 12 18 17 13 24 24 22 25 24 25 24 23 30 30 28 31 31 31 32 34 41 50 50 49 58 49 47 37 35 35
11 12 7 12 16 13 17 26 24 30 22 27 26 26 26 28 30 31 32 31 32 32 42 46 47 53 60 51 49 45 35 35
Wind_Direction
203 201 199 198 192 191 199 202 208 201 200 207 210 218 214 216 209 233 250 230 186 159 177 185 200 192 168 155 161 134 125 164
221 209 212 212 208 205 204 208 213 210 206 211 210 219 222 218 219 239 206 224 179 201 203 189 205 202 178 163 166 140 111 177
225 225 216 219 217 215 212 211 216 213 212 216 216 218 218 221 223 232 213 211 211 206 207 208 203 208 190 170 164 150 92 183
223 231 230 222 220 220 219 217 219 216 214 218 216 219 223 224 223 223 219 221 215 206 214 196 195 200 195 175 165 141 207 202
229 230 235 228 224 228 222 221 221 221 220 222 218 219 222 223 228 226 220 217 215 213 204 189 198 205 192 177 159 157 200 204
237 236 237 232 227 230 230 224 225 224 225 222 220 219 219 220 221 221 223 220 218 214 206 196 201 207 202 175 158 165 213 209
214 229 239 239 224 234 230 221 231 231 228 226 219 219 221 217 221 226 221 220 221 214 207 201 206 195 185 173 167 174 203 205
216 217 232 238 237 233 236 225 220 228 229 231 221 224 224 226 224 228 221 217 225 218 209 211 209 202 179 185 175 182 190 206
220 224 227 235 240 226 236 235 210 236 229 221 230 226 224 227 229 231 217 213 220 223 212 215 209 202 196 184 179 190 191 221
217 220 230 230 239 241 240 231 221 212 242 227 225 230 225 226 228 225 225 220 224 221 211 218 227 203 191 185 183 192 183 204
221 217 224 226 241 250 253 250 235 221 213 228 224 229 227 227 227 230 230 227 227 226 221 244 209 207 213 189 183 186 181 190
229 232 229 237 239 235 241 250 249 242 223 222 233 230 226 226 227 228 231 233 225 217 222 212 211 208 194 186 186 189 189 185
270 257 251 248 235 228 225 231 247 246 241 219 231 232 228 223 230 230 231 232 234 222 215 197 200 202 191 187 188 187 186 187
259 259 258 250 254 239 234 230 237 249 250 229 217 233 232 224 228 235 235 228 230 223 219 207 199 191 196 184 182 188 187 193
264 272 254 248 248 243 232 225 227 236 239 230 220 225 230 226 227 233 233 232 227 224 220 223 206 197 199 192 174 187 181 196
280 257 254 250 250 230 233 228 224 230 237 234 222 215 227 226 224 233 226 224 226 226 219 221 222 195 196 200 193 190 175 180
304 308 245 245 240 223 239 239 238 243 243 240 231 225 227 228 233 231 229 229 228 217 231 234 211 204 197 190 197 197 189 181
301 310 309 264 243 238 233 237 242 240 236 234 228 224 226 224 221 228 234 229 227 231 235 227 226 212 200 199 194 195 192 192
317 315 315 288 302 247 228 235 244 228 230 225 221 220 219 226 223 224 231 236 235 238 240 223 221 218 199 202 200 198 204 197
331 335 341 284 296 282 243 229 227 217 232 221 223 230 223 222 219 222 228 236 236 236 234 231 225 215 199 202 199 198 205 199
Height
1480 1483 1485 1487 1489 1491 1493 1495 1497 1500 1500 1503 1507 1511 1514 1517 1518 1520 1522 1524 1524 1526 1530 1531 1534 1538 1540 1541 1544 1545 1547 1546
1478 1481 1483 1485 1487 1489 1491 1493 1495 1498 1500 1502 1505 1508 1513 1516 1517 1519 1520 1522 1525 1527 1530 1530 1535 1539 1540 1542 1544 1546 1548 1548
1474 1477 1480 1482 1484 1487 1489 1491 1493 1496 1498 1500 1502 1506 1509 1513 1516 1518 1520 1522 1525 1529 1531 1532 1533 1539 1541 1543 1543 1545 1547 1547
1471 1473 1476 1479 1481 1484 1486 1488 1490 1493 1495 1497 1500 1503 1506 1509 1512 1515 1518 1521 1523 1527 1530 1531 1533 1538 1542 1542 1542 1544 1546 1547
1467 1469 1472 1475 1477 1479 1482 1485 1487 1490 1492 1494 1497 1500 1503 1507 1508 1512 1515 1518 1521 1524 1528 1529 1531 1536 1538 1540 1542 1543 1543 1546
1462 1464 1467 1470 1473 1475 1478 1481 1483 1485 1488 1491 1494 1496 1499 1503 1505 1508 1512 1515 1517 1521 1525 1527 1529 1532 1536 1539 1540 1544 1542 1544
1458 1460 1462 1465 1468 1470 1473 1476 1478 1482 1484 1487 1490 1492 1494 1498 1502 1504 1508 1511 1516 1518 1523 1525 1527 1529 1532 1537 1539 1543 1540 1543
1455 1457 1458 1461 1464 1465 1467 1471 1474 1477 1480 1482 1486 1488 1490 1493 1498 1500 1505 1508 1511 1514 1519 1522 1525 1527 1527 1534 1538 1542 1536 1541
1452 1454 1455 1457 1459 1461 1462 1466 1470 1471 1476 1479 1481 1485 1486 1489 1493 1496 1500 1504 1507 1511 1517 1520 1523 1525 1528 1532 1537 1539 1538 1539
1447 1448 1450 1451 1453 1456 1458 1460 1464 1468 1469 1475 1476 1480 1482 1485 1488 1493 1496 1500 1503 1507 1510 1514 1520 1523 1525 1530 1534 1536 1538 1539
1443 1445 1446 1447 1448 1450 1453 1456 1458 1461 1466 1468 1471 1474 1477 1480 1484 1488 1491 1494 1499 1502 1507 1507 1515 1521 1523 1527 1531 1533 1537 1538
1436 1439 1442 1446 1446 1445 1447 1449 1452 1454 1458 1462 1464 1470 1473 1475 1479 1483 1486 1489 1494 1498 1503 1508 1510 1517 1521 1526 1529 1531 1535 1539
1435 1437 1439 1441 1443 1442 1443 1442 1445 1447 1450 1457 1458 1463 1467 1471 1473 1478 1481 1483 1487 1493 1498 1502 1508 1513 1518 1524 1528 1529 1533 1537
1435 1435 1435 1435 1435 1436 1438 1440 1440 1439 1442 1449 1456 1456 1461 1464 1467 1471 1476 1478 1481 1488 1492 1496 1503 1506 1512 1518 1524 1529 1530 1535
1431 1431 1429 1429 1429 1431 1433 1435 1435 1435 1436 1442 1447 1450 1455 1457 1461 1466 1469 1472 1475 1478 1485 1490 1494 1500 1506 1511 1516 1519 1524 1531
1427 1426 1425 1425 1424 1425 1425 1426 1428 1429 1432 1437 1443 1446 1447 1451 1456 1459 1462 1465 1469 1473 1477 1483 1489 1493 1498 1506 1510 1511 1515 1525
1424 1421 1421 1421 1419 1421 1421 1422 1424 1425 1429 1432 1436 1440 1443 1446 1450 1453 1456 1459 1462 1466 1471 1475 1479 1485 1488 1496 1505 1508 1513 1516
1421 1420 1417 1416 1414 1416 1416 1416 1418 1421 1423 1425 1428 1433 1437 1440 1444 1447 1450 1454 1457 1460 1464 1466 1469 1476 1483 1488 1495 1500 1506 1511
1418 1416 1416 1411 1410 1410 1413 1413 1415 1418 1419 1420 1422 1426 1431 1435 1440 1442 1444 1447 1451 1454 1455 1458 1456 1466 1474 1481 1489 1496 1501 1506
1415 1413 1412 1410 1408 1408 1408 1409 1411 1413 1414 1417 1419 1422 1426 1430 1434 1436 1439 1442 1445 1447 1450 1451 1453 1457 1465 1473 1481 1491 1495 1500